Content
SEND FEEDBACK

Daily
Averages
Monthly
Summary
United States of America

CHAUTAUQUA, NEW YORK


Home > North America > United States > New York
Elevation: 1264 feet     Latitude: 42 17N     Longitude: 079 37W

WEATHER
 
SELECT A DAY
Number of Records: 205,794;   Date Range: 12/11/96 - 10/20/14
 
SHARE

PRINT THIS DATA

[ ← Previous Day ]
WEATHER ALMANAC - MARCH 20, 2013
[ Next Day → ]
[ °C ]   °F
Weather ElementAverageHighLow
Temperature27.1 °F30 °F (2:53 pm)24.1 °F (11:53 pm)
Dewpoint19 °F23 °F (11:31 am)12.9 °F (6:53 pm)
Humidity72.1 %86 % (11:31 am)53 % (6:53 pm)
Barometer29.86 in29.89 in (12:53 am)29.84 in (10:10 pm)
Wind Speed12.7 mph19.6 mph (1:53 am)
Wind Gust31.1 mph (3:53 am)
Weather ElementAverage
Visibility5.9 mi
Wind DirectionWSW (260.2 °)

Weather ElementTotal
Precipitation---
Heating Degree Days38 (Base 65)
Averaged from 53 records on March 20, 2013
WEATHER CONDITIONS BREAKOUT
WIND DIRECTION BREAKOUT
WEATHER BY HOUR - MARCH 20, 2013
[ °C ]   °F
Local TimeTemperatureDewpointHumidityBarometerVisibilityWind DirectionWind SpeedGust SpeedPrecipitationEventsConditions
12:53 AM27.0 °F16.0 °F63 %29.89 in10.0 miWest (260°)16.1 mph27.6 mph0.00 inOvercast
1:43 AM28.4 °F17.6 °F64 %29.86 in9.0 miWest (270°)15.0 mph27.6 mph0.00 inSnowLight Snow
1:53 AM27.0 °F19.9 °F75 %29.89 in2.5 miWest (260°)19.6 mph26.5 mph0.00 inSnowLight Snow
2:04 AM26.6 °F17.6 °F69 %29.86 in3.0 miWest (270°)17.3 mph27.6 mph0.00 inSnowLight Snow
2:53 AM28.0 °F16.0 °F61 %29.89 in9.0 miWest (280°)18.4 mph27.6 mph0.00 inSnowLight Snow
3:53 AM28.0 °F17.1 °F63 %29.88 in10.0 miWest (260°)16.1 mph31.1 mph0.00 inOvercast
4:53 AM28.0 °F18.0 °F66 %29.88 in10.0 miWest (270°)11.5 mph27.6 mphOvercast
5:36 AM28.4 °F19.4 °F69 %29.85 in10.0 miWest (270°)13.8 mph24.2 mphOvercast
5:53 AM28.0 °F18.0 °F66 %29.88 in10.0 miWest (260°)15.0 mph27.6 mphOvercast
6:18 AM28.4 °F17.6 °F64 %29.86 in10.0 miWest (260°)15.0 mph25.3 mphOvercast
6:53 AM28.0 °F18.0 °F66 %29.88 in10.0 miWest (270°)17.3 mph25.3 mphOvercast
7:53 AM28.0 °F18.0 °F66 %29.88 in10.0 miWSW (250°)13.8 mph23.0 mphOvercast
8:53 AM28.0 °F18.0 °F66 %29.88 in10.0 miWSW (250°)11.5 mph19.6 mphOvercast
9:53 AM28.0 °F17.1 °F63 %29.89 in10.0 miWSW (250°)13.8 mph23.0 mph0.00 inOvercast
10:27 AM26.6 °F17.6 °F69 %29.86 in2.5 miWSW (250°)15.0 mph23.0 mph0.00 inSnowLight Snow
10:30 AM26.6 °F19.4 °F74 %29.86 in1.5 miWSW (250°)13.8 mph23.0 mph0.00 inSnowLight Snow
10:33 AM26.6 °F19.4 °F74 %29.86 in0.8 miWSW (250°)15.0 mph23.0 mph0.00 inSnowLight Snow
10:47 AM26.6 °F21.2 °F80 %29.86 in1.2 miWSW (250°)13.8 mph20.7 mph0.00 inSnowLight Snow
10:51 AM26.6 °F21.2 °F80 %29.86 in3.0 miWest (260°)11.5 mph20.7 mph0.00 inSnowLight Snow
10:53 AM27.0 °F21.0 °F78 %29.88 in2.5 miWSW (240°)15.0 mph23.0 mph0.00 inSnowLight Snow
10:56 AM26.6 °F21.2 °F80 %29.86 in1.0 miWSW (250°)17.3 mph25.3 mph0.00 inSnowLight Snow
11:09 AM26.6 °F21.2 °F80 %29.86 in1.2 miWSW (250°)13.8 mph21.9 mph0.00 inSnowLight Snow
11:11 AM26.6 °F21.2 °F80 %29.86 in0.8 miWSW (250°)12.7 mph21.9 mph0.00 inSnowLight Snow
11:20 AM26.6 °F21.2 °F80 %29.86 in0.8 miWSW (240°)15.0 mph19.6 mph0.00 inSnowLight Snow
11:31 AM26.6 °F23.0 °F86 %29.85 in1.0 miWest (260°)12.7 mph19.6 mph0.00 inSnowLight Snow
11:41 AM28.4 °F21.2 °F74 %29.85 in8.0 miWSW (250°)15.0 mph21.9 mph0.00 inOvercast
11:53 AM28.0 °F19.9 °F72 %29.88 in10.0 miWSW (250°)12.7 mph25.3 mph0.00 inOvercast
12:22 PM28.4 °F21.2 °F74 %29.86 in2.5 miWSW (250°)11.5 mph24.2 mph0.00 inSnowLight Snow
12:33 PM28.4 °F19.4 °F69 %29.86 in3.0 miWSW (250°)15.0 mph26.5 mph0.00 inSnowLight Snow
12:36 PM28.4 °F21.2 °F74 %29.85 in1.8 miWSW (240°)15.0 mph25.3 mph0.00 inSnowLight Snow
12:46 PM28.4 °F19.4 °F69 %29.85 in3.0 miWest (260°)16.1 mph29.9 mph0.00 inSnowLight Snow
12:53 PM28.0 °F19.0 °F69 %29.88 in7.0 miWest (260°)13.8 mph24.2 mph0.00 inOvercast
1:53 PM28.9 °F19.0 °F67 %29.88 in9.0 miWest (270°)11.5 mph26.5 mph0.00 inOvercast
2:53 PM30.0 °F17.1 °F59 %29.86 in10.0 miWest (260°)17.3 mph28.8 mphOvercast
3:53 PM28.9 °F16.0 °F58 %29.86 in10.0 miWSW (250°)17.3 mph27.6 mphOvercast
4:53 PM28.9 °F14.0 °F54 %29.87 in10.0 miWest (260°)15.0 mph24.2 mphOvercast
5:53 PM28.9 °F14.0 °F54 %29.88 in10.0 miWSW (250°)13.8 mph23.0 mphMostly Cloudy
6:53 PM28.0 °F12.9 °F53 %29.89 in10.0 miWest (260°)12.7 mph19.6 mphMostly Cloudy
7:53 PM27.0 °F17.1 °F66 %29.88 in10.0 miWSW (240°)13.8 mph18.4 mphMostly Cloudy
8:53 PM26.1 °F16.0 °F66 %29.88 in10.0 miWSW (240°)8.1 mphMostly Cloudy
9:53 PM26.1 °F21.0 °F81 %29.87 in10.0 miWest (280°)5.8 mphOvercast
10:10 PM26.6 °F17.6 °F69 %29.84 in9.0 miWest (280°)12.7 mph21.9 mphOvercast
10:15 PM26.6 °F21.2 °F80 %29.84 in2.5 miVariable6.9 mph21.9 mph0.00 inSnowLight Snow
10:23 PM26.6 °F21.2 °F80 %29.84 in3.0 miWNW (300°)6.9 mph0.00 inSnowLight Snow
10:45 PM24.8 °F21.2 °F86 %29.84 in10.0 miNW (310°)5.8 mph0.00 inOvercast
10:53 PM26.1 °F19.9 °F78 %29.88 in2.5 miWNW (300°)9.2 mph0.00 inSnowLight Snow
11:00 PM24.8 °F19.4 °F80 %29.84 in1.0 miWNW (290°)11.5 mph0.00 inSnowLight Snow
11:11 PM24.8 °F21.2 °F86 %29.84 in0.8 miWNW (290°)6.9 mph0.00 inSnowLight Snow
11:23 PM24.8 °F21.2 °F86 %29.84 in1.0 miWNW (300°)5.8 mph0.00 inSnowLight Snow
11:27 PM24.8 °F21.2 °F86 %29.84 in2.0 miWNW (300°)8.1 mph0.00 inSnowLight Snow
11:36 PM24.8 °F21.2 °F86 %29.84 in6.0 miNW (310°)4.6 mph0.00 inSnowLight Snow
11:45 PM24.8 °F19.4 °F80 %29.84 in8.0 miNW (310°)5.8 mph0.00 inOvercast
11:53 PM24.1 °F19.0 °F81 %29.87 in2.5 miWNW (300°)6.9 mph0.00 inSnowLight Snow
Hourly data recorded from KDKK, located miles away from Chautauqua, New York







STORIES FROM OUR PARTNERS